Regional Weather Roundup
Issued by NWS New Orleans/Baton Rouge, LA

Home | Current Version | Previous Version | Text Only | Print | Product List | Glossary Off
Versions: 1 2 3 4 5 6 7 8 9 10 11 12 13 14 15 16 17 18 19 20 21 22 23 24 25 26 27 28 29 30 31 32 33 34 35 36 37 38 39 40 41 42 43 44 45 46 47 48 49 50

165
ASUS44 KLIX 261911
RWRLIX
NEW ORLEANS REGIONAL WEATHER ROUNDUP
NATIONAL WEATHER SERVICE NEW ORLEANS LA
200 PM CDT THU MAR 26 2015

NOTE: "FAIR" INDICATES FEW OR NO CLOUDS BELOW 12,000 FEET WITH NO
      SIGNIFICANT WEATHER AND/OR OBSTRUCTIONS TO VISIBILITY.
      SKY/WX - SKY CONDITION AND SIGNIFICANT WEATHER.
      TMP - AIR TEMPERATURE.     DP    - DEWPOINT TEMPERATURE.
      RH  - RELATIVE HUMIDITY.   PRES  - PRESSURE.
      HI  - HEAT INDEX.          WCI   - WIND CHILL INDEX.

*  THESE STATIONS ARE NOT NWS OR FAA STATIONS AND ARE NOT UNDER
   NWS QUALITY CONTROL.

LAZ038-040-048-061>063-065>067-069-262000-
SOUTHEAST LOUISIANA

CITY           SKY/WX    TMP DP  RH WIND       PRES   REMARKS
N.O. AUDUBON   NOT AVBL
N.O. INTL ARPT LGT RAIN  64  59  83 SW10      29.90F
N.O. LAKEFRONT LGT RAIN  67  61  81 SW13      29.88F
SLIDELL        LGT RAIN  69  66  90 CALM      29.83F
BATON ROUGE    CLOUDY    71  66  84 CALM      29.86F
BOOTHVILLE     LGT RAIN  68  65  90 SW8       29.88F
BELLE CHASSE   RAIN      65  60  84 S12       29.87F FOG
BOGALUSA*      LGT RAIN  73  65  78 SW6       29.88F
GALLIANO*      CLOUDY    63  62  97 MISG      29.93R
NEW ROADS*     DRIZZLE   72  66  82 SE6       29.86F
GONZALES*      LGT RAIN  66  66 100 S7        29.88F
HAMMOND*       CLOUDY    73  66  78 SW7       29.86F
HOUMA*         PTSUNNY   63  63 100 SW3       29.93R FOG
PORT FOURCHON*   N/A    N/A N/A N/A MISG      29.92F

$$

MSZ070-080>082-262000-
SOUTHERN MISSISSIPPI

CITY           SKY/WX    TMP DP  RH WIND       PRES   REMARKS
MCCOMB         CLOUDY    74  62  66 S7        29.85F
GULFPORT       CLOUDY    69  66  90 SE9       29.87F
BILOXI         CLOUDY    67  65  93 S5        29.86F
PASCAGOULA     LGT RAIN  66  65  96 W5        29.88F FOG
STENNIS ARPT*  CLOUDY    70  64  83 SW5       29.88F

$$

COASTAL OBSERVATIONS
LAKE AND NEARSHORE STATIONS

STATION/POSITION TIME  TEMP    WIND        PRES    WAVE
                       AIR SEA DIR/SP/G            HT/PER
                 (UTC) (F)     (DEG/KT/KT) (MB)    (FT/S)
PASCAGOULA       1800   67     180/ 11/ 16 1011.8
WAVELAND YACHT   1800   70 70  240/  7/  9 1011.9
GRAND ISLE       1800   68 71  270/  7/ 10 1013.2
SOUTHWEST PASS   1800   63 51  240/ 11/ 12 1013.6
NEW CANAL        1800   66     210/ 10/ 13 1013.2
SHELL BEACH      1800   67 72  240/  9/ 12 1012.3

OFFSHORE STATIONS

STATION/POSITION TIME  TEMP    WIND        PRES    WAVE
                       AIR SEA DIR/SP/G            HT/PER
                 (UTC) (F)     (DEG/KT/KT) (MB)    (FT/S)
64 S DAUPHIN ISL 1850   70 72  290/  6/  8 1012.2    2/ 6

$$




USA.gov is the U.S. government's official web portal to all federal, state and local government web resources and services.